EW6230 Weather Reports


Display with metric or nautical units.
time (UTC)temp
F
wind
direction
speed
MPH
gust
MPH
rain 1hr
in
rain 24hr
in
rain mn
in
humidity
%
barometer
mb
20260504050010 60 58 0.0 0.0 0.00 0.00 0.00 57 1006.2
20260504044514 62 58 0.0 0.0 0.00 0.00 0.00 49 1006.0
20260504043014 63 58 0.0 0.0 0.00 0.00 0.00 47 1006.0
20260504041532 64 58 0.0 0.0 0.00 0.00 0.00 44 1006.0
20260504040015 65 58 0.0 0.0 0.00 0.00 0.00 48 1006.0
20260504034510 66 58 0.0 0.0 0.00 0.00 0.00 46 1005.9
20260504033008 67 58 0.0 0.0 0.00 0.00 0.00 44 1005.9
20260504031508 68 58 0.0 0.0 0.00 0.00 0.00 42 1005.8
20260504030007 70 58 0.0 0.0 0.00 0.00 0.00 39 1005.9
20260504024506 71 58 0.0 0.0 0.00 0.00 0.00 38 1006.0
20260504023005 72 58 0.0 0.0 0.00 0.00 0.00 34 1006.0
20260504021503 72 58 0.0 0.0 0.00 0.00 0.00 37 1006.2
20260504020005 73 58 0.0 0.0 0.00 0.00 0.00 36 1006.2
20260504014602 74 58 0.0 0.0 0.00 0.00 0.00 33 1006.4
20260504013126 74 58 0.0 0.0 0.00 0.00 0.00 33 1006.6
20260504011556 74 61 0.0 0.0 0.00 0.00 0.00 33 1006.8
20260504010057 74 61 0.0 0.0 0.00 0.00 0.00 33 1007.1
20260504004553 75 61 0.0 0.0 0.00 0.00 0.00 33 1007.2
20260504003052 77 61 0.0 0.0 0.00 0.00 0.00 31 1007.3
20260504001551 79 25 0.0 0.0 0.00 0.00 0.00 31 1007.4
20260504000049 80 25 0.0 0.0 0.00 0.00 0.00 29 1007.5
20260503234547 81 25 0.0 0.0 0.00 0.00 0.00 30 1007.6
20260503233046 81 80 0.0 0.0 0.00 0.00 0.00 32 1007.8
20260503231542 80 82 0.0 0.0 0.00 0.00 0.00 33 1007.8
20260503230042 80 79 0.0 0.0 0.00 0.00 0.00 33 1008.0
20260503224537 79 89 0.0 0.0 0.00 0.00 0.00 33 1008.3
20260503223035 77 151 0.0 0.0 0.00 0.00 0.00 35 1008.5
20260503221533 77 92 0.0 0.0 0.00 0.00 0.00 35 1008.8
20260503220030 76 126 0.0 0.0 0.00 0.00 0.00 36 1009.1
20260503214537 76 70 0.0 0.0 0.00 0.00 0.00 37 1009.3
20260503213027 76 92 0.0 0.0 0.00 0.00 0.00 36 1009.3
20260503211525 77 84 0.0 0.0 0.00 0.00 0.00 36 1009.4
20260503210024 79 355 0.0 0.0 0.00 0.00 0.00 35 1009.4
20260503204522 79 324 0.0 0.0 0.00 0.00 0.00 32 1009.5
20260503203032 80 323 0.0 0.0 0.00 0.00 0.00 32 1009.4
20260503201519 79 71 0.0 0.0 0.00 0.00 0.00 35 1009.6
20260503200016 79 91 0.0 0.0 0.00 0.00 0.00 35 1009.8
20260503194513 78 305 0.0 0.0 0.00 0.00 0.00 36 1010.0
20260503193021 76 305 0.0 0.0 0.00 0.00 0.00 36 1010.2
20260503191520 77 305 0.0 0.0 0.00 0.00 0.00 34 1010.4
20260503190018 78 49 0.0 0.0 0.00 0.00 0.00 36 1010.5
20260503184506 78 75 0.0 0.0 0.00 0.00 0.00 36 1010.5
20260503183003 78 76 0.0 0.0 0.00 0.00 0.00 37 1010.7
20260503181559 76 76 0.0 0.0 0.00 0.00 0.00 40 1010.9
20260503174555 75 75 0.0 0.0 0.00 0.00 0.00 41 1011.2
20260503173055 74 89 0.0 0.0 0.00 0.00 0.00 39 1011.3
20260503171551 75 323 0.0 0.0 0.00 0.00 0.00 42 1011.5
20260503170104 73 325 0.0 0.0 0.00 0.00 0.00 41 1011.6
20260503081539 58 56 0.0 0.0 0.00 0.00 0.00 59 1011.3
20260503071526 58 56 0.0 0.0 0.00 0.00 0.00 57 1011.3